Weather past 2 weeks in Port-aux-Francais, French Southern Territories

Now
33 °F

Chilly.


Feels Like: 21 °F
Forecast: 33 / 40 °F
Wind: 24 mph from Northwest

Location: Port-Aux-Francais Iles Kerguelen

Current Time: Jul 6, 2015 at 4:44:52 AM

Latest Report: Jul 6, 2015 at 4:00 AM


Visibility: N/A

Pressure: 29.83 "Hg

Humidity: 70%

Dew point: 24 °F

Location of Port-aux-FrancaisLocation

Historic Weather in Port-aux-Francais — Graph

°F

Port-aux-Francais temperature yesterday

Maximum temperature yesterday: 33 °F (at 11:00 AM)
Minimum temperature yesterday: 30 °F (at 9:00 PM)
Average temperature yesterday: 31 °F

Past Weeks' High & Low Weather Summary

 TemperatureHumidityPressure
High48 °F (Jun 21, 9:00 PM)94% (Jun 30, 1:00 AM)29.85 "Hg (Jun 30, 1:00 AM)
Low29 °F (Jun 23, 10:00 PM)51% (Jun 22, 4:00 AM)28.58 "Hg (Jun 22, 4:00 AM)
Average34 °F76%29.23 "Hg
* Reported Jun 21 3:00 AM — Jul 6 3:00 AM, Port-aux-Francais, Weather by CustomWeather, © 2015

Note: Actual official high and low records may vary slightly from our data, if they occured in-between our weather recording intervals... More about our weather records

Advertising

Port-aux-Francais weather history for previous 24 hours

 ConditionsComfort  
Time TempWeatherWind HumidityBarometerVisibility
3:00 AM
Mon, Jul 6
33 °FChilly.21 mph67%29.84 "HgN/A
2:00 AM33 °FChilly.13 mph71%29.85 "HgN/A
1:00 AM31 °FChilly.17 mph73%29.85 "HgN/A
12:00 AM32 °FChilly.16 mph67%29.85 "HgN/A
11:00 PM
Sun, Jul 5
31 °FChilly.18 mph67%29.83 "HgN/A
10:00 PM31 °FChilly.13 mph73%29.83 "HgN/A
9:00 PM30 °FChilly.12 mph69%29.81 "HgN/A
8:00 PM31 °FChilly.15 mph66%29.79 "HgN/A
7:00 PM31 °FChilly.18 mph68%29.77 "HgN/A
6:00 PM32 °FChilly.15 mph69%29.75 "HgN/A
5:00 PM32 °FChilly.20 mph71%29.72 "HgN/A
4:00 PM33 °FChilly.20 mph77%29.67 "HgN/A
11:00 AM33 °FChilly.10 mph61%29.54 "HgN/A
10:00 AM31 °FChilly.9 mph67%29.53 "HgN/A
9:00 AM30 °FChilly.9 mph72%29.50 "HgN/A
7:00 AM31 °FChilly.14 mph70%29.41 "HgN/A
6:00 AM31 °FChilly.16 mph72%29.38 "HgN/A
5:00 AM31 °FChilly.15 mph66%29.35 "HgN/A
4:00 AM31 °FChilly.15 mph65%29.32 "HgN/A
Weather by CustomWeather, © 2015

See weather overviewHow to use our weather pages